KF0KFL-13 Weather Reports


time (UTC)temp
C
wind
direction
speed
KPH
gust
KPH
rain 1hr
cm
rain 24hr
cm
rain mn
cm
humidity
%
barometer
mb
20260504081142 12 168 0.0 3.2 0.00 0.00 0.00 48 997.5
20260504050748 12 137 1.6 1.6 0.00 0.00 0.00 47 1001.3
20260504050432 11 139 1.6 3.2 0.00 0.00 0.00 49 1001.0
20260504045455 11 137 1.6 1.6 0.00 0.00 0.00 51 1001.3
20260504044736 11 135 1.6 1.6 0.00 0.00 0.00 51 1001.5
20260504044554 11 136 1.6 1.6 0.00 0.00 0.00 52 1001.7
20260504044308 11 136 1.6 1.6 0.00 0.00 0.00 51 1001.6
20260504043841 11 136 1.6 1.6 0.00 0.00 0.00 52 1001.7
20260504041811 11 0 0.0 0.0 0.00 0.00 0.00 51 1002.1
20260504035741 11 127 0.0 1.6 0.00 0.00 0.00 52 1002.6
20260504033711 11 0 0.0 0.0 0.00 0.00 0.00 52 1002.8
20260504031641 12 139 1.6 1.6 0.00 0.00 0.00 48 1003.2
20260504025611 13 124 1.6 1.6 0.00 0.00 0.00 44 1003.5
20260504023541 15 144 1.6 1.6 0.00 0.00 0.00 37 1003.4
20260504021511 15 135 1.6 1.6 0.00 0.00 0.00 39 1003.5
20260504015441 16 129 1.6 1.6 0.00 0.00 0.00 34 1003.5
20260504013411 17 144 0.0 1.6 0.00 0.00 0.00 31 1003.8
20260504011341 17 94 0.0 1.6 0.00 0.00 0.00 31 1004.0
20260504005341 18 22 0.0 3.2 0.00 0.00 0.00 28 1003.8
20260504003311 18 39 1.6 3.2 0.00 0.00 0.00 28 1003.9
20260504001241 19 74 1.6 1.6 0.00 0.00 0.00 27 1004.0
20260503235241 20 48 3.2 6.4 0.00 0.00 0.00 25 1003.9
20260503233211 20 56 3.2 6.4 0.00 0.00 0.00 25 1003.9
20260503231141 21 74 0.0 1.6 0.00 0.00 0.00 23 1004.2
20260503225111 21 13 4.8 16.1 0.00 0.00 0.00 23 1004.2
20260503223111 21 16 4.8 12.9 0.00 0.00 0.00 23 1004.4
20260503221111 20 44 0.0 4.8 0.00 0.00 0.00 24 1004.7
20260503215041 20 353 6.4 11.3 0.00 0.00 0.00 24 1004.9
20260503213011 20 356 6.4 12.9 0.00 0.00 0.00 23 1004.9
20260503210941 20 351 8.0 14.5 0.00 0.00 0.00 24 1005.0
20260503204910 21 19 4.8 12.9 0.00 0.00 0.00 24 1005.3
20260503202934 21 357 6.4 11.3 0.00 0.00 0.00 26 1005.3
20260503202840 21 357 6.4 11.3 0.00 0.00 0.00 26 1005.3
20260503200810 21 9 6.4 14.5 0.00 0.00 0.00 29 1005.3
20260503194740 20 360 6.4 12.9 0.00 0.00 0.00 26 1005.5
20260503192740 20 4 9.7 17.7 0.00 0.00 0.00 25 1005.8
20260503190740 20 9 8.0 17.7 0.00 0.00 0.00 26 1005.7
20260503184710 20 10 8.0 14.5 0.00 0.00 0.00 28 1006.1
20260503182640 20 18 8.0 14.5 0.00 0.00 0.00 35 1005.8
20260503180640 20 15 6.4 14.5 0.00 0.00 0.00 34 1006.2
20260503174610 19 16 6.4 14.5 0.00 0.00 0.00 35 1006.2
20260503172540 19 11 8.0 14.5 0.00 0.00 0.00 38 1006.3
20260503170510 18 4 8.0 16.1 0.00 0.00 0.00 40 1006.2
20260503150240 16 19 6.4 20.9 0.00 0.00 0.00 47 1005.9
20260503140210 14 27 4.8 9.7 0.00 0.00 0.00 51 1005.7
20260503130109 12 53 1.6 4.8 0.00 0.00 0.00 50 1005.4